User: anonymous   Login
Location: Unspecified
(0.0000°N, 0.0000°E)
Time: 03:29:48
(UTC+00:00)
Language:

Terriers - Orbit

View from above orbital plane
View from above orbital plane
View from above satellite
View from above satellite

Ground track
Ground track

The orbit data is extracted from the following two-line orbital elements,

1 25735U 99026A   19054.51371101  .00001457  00000-0  29947-4 0  9998
2 25735  97.2332 227.2632 0002732 285.1377  74.9571 15.47664605101550
Epoch (UTC): 23 February 2019 12:19:44
Eccentricity: 0.0002732
inclination: 97.2332°
perigee height: 422 km
apogee height: 425 km
right ascension of ascending node: 227.2632°
argument of perigee: 285.1377°
revolutions per day: 15.47664605
mean anomaly at epoch: 74.9571°
orbit number at epoch: 10155

The dashed part of the orbit path shows where the satellite is in the earth's shadow,  

DLR